Glenwood, MN

4:30 PM CDT on May 23, 2017 (GMT -0500)
Glenwood Municipal

Weather History for KGHW - December, 2012

Change the Weather History Date:

Monday, December 10, 2012

  Actual Average Record
Temperature  
Mean Temperature -2 °F -  
Max Temperature 8 °F 26 °F 50 °F (1990)
Min Temperature -13 °F 9 °F -25 °F (1972)
Degree Days  
Heating Degree Days 68    
Moisture  
Dew Point -6 °F    
Average Humidity 79    
Maximum Humidity 92    
Minimum Humidity 66    
Precipitation  
Precipitation 0.00 in - - ()
Sea Level Pressure  
Sea Level Pressure 29.89 in    
Wind  
Wind Speed 9 mph (WSW)    
Max Wind Speed 16 mph    
Max Gust Speed 9 mph    
Visibility 10 miles    
Events Snow    
Averages and records for this station are not official NWS values.
T = Trace of Precipitation, MM = Missing Value Source: NWS Daily Summary

Daily Weather History Graph

Daily Weather History Graph

Search for Another Location

Airport or City:

Trip Planner

Search our weather history database for the weather conditions in past years. The results will help you decide how hot, cold, wet, or windy it might be!

Date:

Astronomy

Dec. 10, 2012 Rise Set
Actual Time 7:51 AM CST 4:37 PM CST
Civil Twilight 7:17 AM CST 5:11 PM CST
Nautical Twilight 6:39 AM CST 5:48 PM CST
Astronomical Twilight 6:03 AM CST 6:25 PM CST
Moon 4:30 AM CST (12/10) 2:32 PM CST (12/10)
Length of Visible Light 9h 54m
Length of Day
8h 45m
Waning Crescent, 10% of the Moon is Illuminated
Dec 10
Waning Crescent
Dec 13
New
Dec 19
First Quarter
Dec 28
Full
Jan 4
Last Quarter

Hourly Weather History & Observations

Time (CST) Temp. Windchill Dew Point Humidity Pressure Visibility Wind Dir Wind Speed Gust Speed Precip Events Conditions
12:13 AM 6.8 °F -10.0 °F 1.4 °F 79% 30.02 in 10.0 mi NW 13.8 mph - N/A   Overcast
12:34 AM 5.0 °F -13.6 °F -0.4 °F 78% 30.02 in 10.0 mi NW 16.1 mph - N/A   Overcast
12:53 AM 3.2 °F -15.3 °F -2.2 °F 78% 30.02 in 10.0 mi NW 15.0 mph - N/A   Overcast
1:13 AM 3.2 °F -15.3 °F -2.2 °F 78% 30.01 in 10.0 mi NW 15.0 mph - N/A   Overcast
1:33 AM 1.4 °F -16.9 °F -2.2 °F 85% 30.01 in 10.0 mi NW 13.8 mph - N/A   Overcast
1:53 AM -0.4 °F -16.7 °F -4.0 °F 85% 30.00 in 10.0 mi NW 10.4 mph - N/A   Mostly Cloudy
2:13 AM -0.4 °F -16.7 °F -5.8 °F 78% 30.00 in 10.0 mi NW 10.4 mph - N/A   Scattered Clouds
2:53 AM -2.2 °F -16.8 °F -7.6 °F 78% 30.00 in 10.0 mi NW 8.1 mph - N/A   Clear
3:13 AM -4.0 °F -19.0 °F -7.6 °F 85% 30.00 in 10.0 mi NW 8.1 mph - N/A   Clear
3:33 AM -5.8 °F -21.2 °F -7.6 °F 92% 30.00 in 10.0 mi NW 8.1 mph - N/A   Clear
3:53 AM -5.8 °F -18.4 °F -9.4 °F 84% 29.99 in 10.0 mi WNW 5.8 mph - N/A   Clear
4:13 AM -7.6 °F -24.6 °F -9.4 °F 92% 29.99 in 10.0 mi WNW 9.2 mph - N/A   Clear
4:33 AM -7.6 °F -23.4 °F -9.4 °F 92% 29.99 in 10.0 mi WNW 8.1 mph - N/A   Clear
4:53 AM -7.6 °F -24.6 °F -11.2 °F 84% 29.99 in 10.0 mi WNW 9.2 mph - N/A   Clear
5:13 AM -9.4 °F -27.9 °F -11.2 °F 92% 29.98 in 10.0 mi WNW 10.4 mph - N/A   Clear
5:33 AM -9.4 °F -22.7 °F -13.0 °F 84% 29.97 in 10.0 mi NW 5.8 mph 9.2 mph N/A   Clear
5:53 AM -11.2 °F -29.0 °F -14.8 °F 84% 29.97 in 10.0 mi WNW 9.2 mph - N/A   Clear
6:14 AM -9.4 °F -22.7 °F -13.0 °F 84% 29.96 in 10.0 mi NW 5.8 mph - N/A   Clear
6:33 AM -11.2 °F -29.0 °F -14.8 °F 84% 29.96 in 10.0 mi NW 9.2 mph - N/A   Clear
6:53 AM -9.4 °F -24.3 °F -14.8 °F 77% 29.95 in 10.0 mi NW 6.9 mph - N/A   Clear
7:14 AM -11.2 °F -24.8 °F -14.8 °F 84% 29.96 in 10.0 mi WNW 5.8 mph - N/A   Clear
7:33 AM -11.2 °F -23.0 °F -14.8 °F 84% 29.96 in 10.0 mi WNW 4.6 mph - N/A   Clear
7:53 AM -13.0 °F -27.0 °F -16.6 °F 84% 29.95 in 10.0 mi WNW 5.8 mph - N/A   Clear
8:14 AM -11.2 °F -26.4 °F -14.8 °F 84% 29.96 in 10.0 mi West 6.9 mph - N/A   Clear
8:33 AM -11.2 °F -24.8 °F -16.6 °F 77% 29.95 in 10.0 mi West 5.8 mph - N/A   Clear
8:53 AM -11.2 °F -29.0 °F -14.8 °F 84% 29.96 in 10.0 mi West 9.2 mph - N/A   Clear
9:14 AM -7.6 °F -22.1 °F -11.2 °F 84% 29.96 in 10.0 mi WNW 6.9 mph - N/A   Clear
9:33 AM -5.8 °F -19.9 °F -9.4 °F 84% 29.95 in 10.0 mi WNW 6.9 mph - N/A   Clear
9:53 AM -5.8 °F -18.4 °F -9.4 °F 84% 29.94 in 10.0 mi NNW 5.8 mph - N/A   Clear
10:13 AM -2.2 °F -12.5 °F -7.6 °F 78% 29.93 in 10.0 mi North 4.6 mph - N/A   Clear
10:33 AM -2.2 °F -12.5 °F -7.6 °F 78% 29.93 in 10.0 mi NNW 4.6 mph - N/A   Clear
10:53 AM -0.4 °F -8.3 °F -5.8 °F 78% 29.93 in 10.0 mi North 3.5 mph - N/A   Clear
11:13 AM 1.4 °F - -5.8 °F 72% 29.92 in 10.0 mi Calm Calm - N/A   Unknown
11:54 AM 3.2 °F - -2.2 °F 78% 29.90 in 10.0 mi Calm Calm - N/A   Unknown
12:13 PM 3.2 °F - -4.0 °F 72% 29.90 in 10.0 mi Calm Calm - N/A   Unknown
12:33 PM 3.2 °F - -2.2 °F 78% 29.89 in 10.0 mi Calm Calm - N/A   Unknown
12:53 PM 6.8 °F - -2.2 °F 67% 29.88 in 10.0 mi Calm Calm - N/A   Unknown
1:13 PM 6.8 °F -2.0 °F -0.4 °F 72% 29.87 in 10.0 mi South 4.6 mph - N/A   Unknown
1:33 PM 6.8 °F -3.5 °F -0.4 °F 72% 29.87 in 10.0 mi South 5.8 mph - N/A   Unknown
1:53 PM 8.6 °F -1.3 °F -0.4 °F 67% 29.87 in 10.0 mi SW 5.8 mph - N/A   Unknown
2:13 PM 6.8 °F -3.5 °F -0.4 °F 72% 29.85 in 10.0 mi SSW 5.8 mph - N/A   Unknown
2:33 PM 8.6 °F -1.3 °F -0.4 °F 67% 29.85 in 10.0 mi SSW 5.8 mph - N/A   Clear
2:53 PM 6.8 °F -4.8 °F -2.2 °F 67% 29.84 in 10.0 mi SSW 6.9 mph - N/A   Unknown
3:13 PM 6.8 °F -0.1 °F -2.2 °F 67% 29.83 in 10.0 mi South 3.5 mph - N/A   Unknown
3:53 PM 3.2 °F -4.2 °F -4.0 °F 72% 29.83 in 10.0 mi South 3.5 mph - N/A   Unknown
4:13 PM 3.2 °F -4.2 °F -5.8 °F 66% 29.82 in 10.0 mi SSE 3.5 mph - N/A   Clear
4:33 PM 3.2 °F -4.2 °F -4.0 °F 72% 29.82 in 10.0 mi SE 3.5 mph - N/A   Clear
4:53 PM 3.2 °F -4.2 °F -4.0 °F 72% 29.82 in 10.0 mi SE 3.5 mph - N/A   Clear
5:13 PM 1.4 °F - -5.8 °F 72% 29.82 in 10.0 mi Calm Calm - N/A   Clear
5:33 PM 1.4 °F -6.2 °F -4.0 °F 78% 29.81 in 10.0 mi ESE 3.5 mph - N/A   Clear
5:53 PM -0.4 °F -12.0 °F -5.8 °F 78% 29.80 in 10.0 mi ESE 5.8 mph - N/A   Scattered Clouds
6:13 PM -0.4 °F -12.0 °F -5.8 °F 78% 29.80 in 10.0 mi SE 5.8 mph - N/A   Mostly Cloudy
6:33 PM 1.4 °F -12.5 °F -5.8 °F 72% 29.80 in 10.0 mi SSE 8.1 mph - N/A   Scattered Clouds
6:53 PM 1.4 °F -12.5 °F -5.8 °F 72% 29.80 in 10.0 mi SSE 8.1 mph - N/A   Scattered Clouds
7:13 PM 3.2 °F -7.8 °F -5.8 °F 66% 29.80 in 10.0 mi SSE 5.8 mph - N/A   Scattered Clouds
7:33 PM 3.2 °F -11.3 °F -5.8 °F 66% 29.80 in 10.0 mi SSE 9.2 mph - N/A   Scattered Clouds
7:53 PM 5.0 °F -10.8 °F -4.0 °F 66% 29.80 in 10.0 mi South 11.5 mph - N/A   Mostly Cloudy
8:14 PM 5.0 °F -8.1 °F -2.2 °F 72% 29.79 in 10.0 mi South 8.1 mph - N/A   Overcast
8:33 PM 5.0 °F -9.1 °F -2.2 °F 72% 29.79 in 10.0 mi South 9.2 mph - N/A   Overcast
8:53 PM 3.2 °F -10.3 °F -2.2 °F 78% 29.78 in 10.0 mi South 8.1 mph - N/A   Overcast
9:14 PM 3.2 °F -10.3 °F -2.2 °F 78% 29.77 in 10.0 mi South 8.1 mph - N/A   Overcast
9:33 PM 3.2 °F -4.2 °F -0.4 °F 85% 29.78 in 10.0 mi SSW 3.5 mph - N/A   Overcast
9:53 PM 3.2 °F -7.8 °F -0.4 °F 85% 29.77 in 10.0 mi SSW 5.8 mph - N/A Snow Light Snow
10:14 PM 3.2 °F -7.8 °F -0.4 °F 85% 29.77 in 7.0 mi SSW 5.8 mph - N/A Snow Light Snow
10:33 PM 3.2 °F -9.1 °F 1.4 °F 92% 29.76 in 4.0 mi SW 6.9 mph - N/A Snow Light Snow
10:53 PM 3.2 °F -7.8 °F 1.4 °F 92% 29.75 in 5.0 mi SSW 5.8 mph - N/A Snow Light Snow
11:14 PM 3.2 °F -7.8 °F -0.4 °F 85% 29.75 in 10.0 mi SW 5.8 mph - N/A Snow Light Snow
11:33 PM 3.2 °F -9.1 °F -0.4 °F 85% 29.75 in 10.0 mi SW 6.9 mph - N/A Snow Light Snow
11:53 PM 1.4 °F -11.3 °F -2.2 °F 85% 29.76 in 7.0 mi SW 6.9 mph - N/A Snow Light Snow